Regional Weather Roundup
Issued by NWS

Home | Current Version | Previous Version | Graphics & Text | Print | Product List | Glossary On
Versions: 1 2 3 4 5 6 7 8 9 10 11 12 13 14 15 16 17 18 19 20 21 22 23 24 25 26 27
000
ASUS45 KCYS 160410
RWRWY

WYOMING REGIONAL WEATHER ROUNDUP
NATIONAL WEATHER SERVICE CHEYENNE WY
1000 PM MDT TUE APR 15 2014

NOTE:  "FAIR" INDICATES FEW OR NO CLOUDS BELOW 12,000 FEET
WITH NO SIGNIFICANT WEATHER AND/OR OBSTRUCTIONS TO VISIBILITY.

WYZ001-160500-
YELLOWSTONE NATIONAL PARK

CITY           SKY/WX    TMP DP  RH WIND       PRES   REMARKS
LK YELLOWSTONE   N/A     25  21  85 NW3       29.86R
W YELLOWSTONE  NOT AVBL

$$
WYZ002>013-054>058-071-098>099-160500-
NORTHERN WYOMING

CITY           SKY/WX    TMP DP  RH WIND       PRES   REMARKS
JACKSON        CLOUDY    37  18  44 N7        29.84R WCI  32
CODY           CLOUDY    37  32  81 S6        29.77R WCI  33
GREYBULL       CLOUDY    42  33  70 NW14      29.74R
WORLAND        CLOUDY    39  34  82 NW8       29.76R WCI  33
SHERIDAN       LGT RAIN  39  35  86 NW14      29.73R WCI  31
BUFFALO        LGT RAIN  36  32  85 N22G29    29.70F WCI  25
GILLETTE       LGT RAIN  40  36  86 NW18G24   29.67R WCI  31
HULETT         LGT RAIN N/A N/A N/A N3        29.66
NEWCASTLE      FAIR      43  32  65 N23G29    29.62

$$
WYZ014>020-022>026-101>103-160500-
CENTRAL WYOMING

CITY           SKY/WX    TMP DP  RH WIND       PRES   REMARKS
BIG PINEY      LGT SNOW  32  27  81 N24G35    29.85R WCI  19
PINEDALE       LGT SNOW  30  30 100 W13       29.83F WCI  20
DUBOIS         FAIR      28  21  74 W8        29.78R WCI  20
LANDER         MOCLDY    41  28  60 W17       29.73R
RIVERTON       CLOUDY    37  31  78 N23G32    29.77R WCI  26
CASPER         MOCLDY    44  25  47 W15       29.64R
DOUGLAS        CLOUDY    50  27  40 NW21      29.62R

$$
WYZ021-027>030-104>119-160500-
SOUTHERN WYOMING

CITY           SKY/WX    TMP DP  RH WIND       PRES   REMARKS
EVANSTON       CLOUDY    41  16  36 VRB7G18   29.92R
KEMMERER       MOCLDY    36  19  51 W20       29.87R WCI  25
FORT BRIDGER   FAIR      41  22  47 W17G28    29.90S
ROCK SPRINGS   MOCLDY    41  25  53 W20       29.84R
DIXON          CLOUDY    46  24  41 NW15G23   29.82R
RAWLINS        CLOUDY    44  24  45 W33G47    29.75R
SARATOGA       CLOUDY    41  27  56 NW15G28   29.78R
LARAMIE        MOCLDY    41  24  51 W24G32    29.74S
CHEYENNE       CLOUDY    48  20  32 W16       29.70F
TORRINGTON     CLOUDY    51  31  46 SW14      29.59F
PINE BLUFFS    FAIR      43  28  56 SW7       29.69S

$$



USA.gov is the U.S. government's official web portal to all federal, state and local government web resources and services.